"Pseudo-MPEC" for C0UTLZ5

Created 2024 Nov 9 4:31:03 UT using Find_Orb

Click here for an explanation of pseudo-MPECs

 
 Astrometry: 
     C0UTLZ5* C2024 10 28.33484002 02 57.534+19 13 33.24   ~AS92 22.13GVNEOCPV00
     C0UTLZ5  C2024 10 28.34045002 02 56.209+19 13 40.08   ~AS92 22.25GVNEOCPV00
     C0UTLZ5  C2024 10 28.34605302 02 54.895+19 13 46.78   ~AS92 22.65GVNEOCPV00
     C0UTLZ5  C2024 10 28.35165902 02 53.574+19 13 53.72   ~AS92 23.62GVNEOCPV00
     C0UTLZ5 mC2024 10 28.45105402 02 30.530+19 15 50.40   ~ASBV       VNEOCPV00
     C0UTLZ5 mC2024 10 28.45202802 02 30.290+19 15 52.00   ~ASBV       VNEOCPV00
     C0UTLZ5 mC2024 10 28.45299802 02 30.090+19 15 53.40   ~ASBV 22.85GVNEOCPV00
     C0UTLZ5 mC2024 10 28.45396702 02 29.870+19 15 54.40   ~ASBV 23.59GVNEOCPV00

Station data:
(V00) Kitt Peak-Bok  (N31.963125 W111.600190)  US/Arizona.  Observers T. A.
   Pruyne, B. M. Africano, E. J. Christensen, G. A. Farneth, D. C. Fuls, A.
   R. Gibbs, A. D. Grauer, H. Gröller, J. A. Johnson, R. A. Kowalski, S. M.
   Larson, G. J. Leonard, D. Rankin, R. L. Seaman, F. C. Shelly, K. W.
   Wierzchoś. 2.25-m reflector + 4x4K mosaic CCD.

Orbital elements:  C0UTLZ5
   Perihelion 2024 Jun 29.24772 +/- 133 TT =  5:56:42 (JD 2460490.74772)
Epoch 2024 Oct 28.0 TT = JDT 2460611.5   Earth MOID: 0.0016   Ma: 0.0224
M  61.57047751 +/- 70               (J2000 ecliptic)             AutoNEOCP
n   0.50989079 +/- 0.316            Peri.  246.54888 +/- 80
a   1.55173634 +/- 0.642            Node    31.52460 +/- 29
e   0.4772539 +/- 0.253             Incl.   31.99171 +/- 28
P   1.933/706.020d         H 23.12  G  0.15   U 12.0  SR
q 0.81116406 +/- 0.471    Q 2.29230862 +/- 6.69
From 8 observations 2024 Oct. 28 (2.9 hr); mean residual 0".19
Residuals in arcseconds: 
241028 V00  .23+  .17-    241028 V00  .24-  .25+    241028 V00  .11+  .27+    
241028 V00  .03+  .03-    241028 V00  .00   .45-    241028 V00  .15+  .13+    
241028 V00  .06-  .01-    241028 V00  .22-  .01+    

Ephemerides (geocentric):
Date (UTC) HH   RA             Dec           delta  r     elong  mag " sig PA
---- --------  ------------   ------------  ------ ------ -----  --- --------
2024 11 09 05  01 25 03.386   +22 11 10.42  .65651 1.6167 157.5 24.0  31d 102
2024 11 09 06  01 24 57.023   +22 11 37.12  .65696 1.6170 157.5 24.0  31d 102
2024 11 09 07  01 24 50.671   +22 12 03.76  .65740 1.6172 157.4 24.0  31d 102
2024 11 09 08  01 24 44.331   +22 12 30.34  .65785 1.6175 157.3 24.0  31d 102
2024 11 09 09  01 24 38.003   +22 12 56.87  .65830 1.6178 157.3 24.0  31d 102
2024 11 09 10  01 24 31.685   +22 13 23.33  .65875 1.6180 157.2 24.0  31d 102
2024 11 09 11  01 24 25.380   +22 13 49.74  .65920 1.6183 157.2 24.1  31d 102
2024 11 09 12  01 24 19.085   +22 14 16.09  .65965 1.6185 157.1 24.1  31d 102
2024 11 09 13  01 24 12.803   +22 14 42.38  .66010 1.6188 157.0 24.1  31d 102
2024 11 09 14  01 24 06.531   +22 15 08.61  .66055 1.6191 157.0 24.1  31d 102
2024 11 09 15  01 24 00.272   +22 15 34.78  .66100 1.6193 156.9 24.1  31d 102
2024 11 09 16  01 23 54.023   +22 16 00.90  .66145 1.6196 156.9 24.1  31d 102
2024 11 09 17  01 23 47.786   +22 16 26.96  .66190 1.6199 156.8 24.1  31d 102
2024 11 09 18  01 23 41.561   +22 16 52.96  .66235 1.6201 156.7 24.1  31d 102
2024 11 09 19  01 23 35.347   +22 17 18.90  .66280 1.6204 156.7 24.1  31d 102
2024 11 09 20  01 23 29.144   +22 17 44.79  .66326 1.6206 156.6 24.1  31d 102
2024 11 09 21  01 23 22.953   +22 18 10.62  .66371 1.6209 156.6 24.1  32d 102
2024 11 09 22  01 23 16.773   +22 18 36.39  .66416 1.6212 156.5 24.1  32d 102
2024 11 09 23  01 23 10.605   +22 19 02.11  .66462 1.6214 156.4 24.1  32d 102
2024 11 10 00  01 23 04.448   +22 19 27.77  .66507 1.6217 156.4 24.1  32d 102
2024 11 10 01  01 22 58.303   +22 19 53.37  .66553 1.6219 156.3 24.1  32d 102
2024 11 10 02  01 22 52.169   +22 20 18.92  .66598 1.6222 156.3 24.1  32d 102
2024 11 10 03  01 22 46.046   +22 20 44.41  .66644 1.6225 156.2 24.1  32d 102
2024 11 10 04  01 22 39.935   +22 21 09.84  .66689 1.6227 156.1 24.1  32d 102
2024 11 10 05  01 22 33.835   +22 21 35.22  .66735 1.6230 156.1 24.1  32d 102
2024 11 10 06  01 22 27.746   +22 22 00.55  .66781 1.6233 156.0 24.1  32d 102
2024 11 10 07  01 22 21.669   +22 22 25.81  .66827 1.6235 156.0 24.1  32d 102
2024 11 10 08  01 22 15.604   +22 22 51.03  .66872 1.6238 155.9 24.1  32d 102
2024 11 10 09  01 22 09.549   +22 23 16.19  .66918 1.6240 155.8 24.1  32d 102
2024 11 10 10  01 22 03.507   +22 23 41.29  .66964 1.6243 155.8 24.1  32d 102
2024 11 10 11  01 21 57.475   +22 24 06.34  .67010 1.6246 155.7 24.1  32d 102
2024 11 10 12  01 21 51.455   +22 24 31.33  .67056 1.6248 155.7 24.1  32d 102
2024 11 10 13  01 21 45.446   +22 24 56.27  .67102 1.6251 155.6 24.1  32d 102
2024 11 10 14  01 21 39.449   +22 25 21.15  .67148 1.6253 155.5 24.1  32d 102
2024 11 10 15  01 21 33.463   +22 25 45.98  .67194 1.6256 155.5 24.1  32d 102
2024 11 10 16  01 21 27.488   +22 26 10.76  .67240 1.6259 155.4 24.1  32d 102
2024 11 10 17  01 21 21.524   +22 26 35.48  .67286 1.6261 155.4 24.1  32d 102
2024 11 10 18  01 21 15.572   +22 27 00.15  .67332 1.6264 155.3 24.1  32d 102
2024 11 10 19  01 21 09.632   +22 27 24.76  .67379 1.6266 155.3 24.1  33d 103
2024 11 10 20  01 21 03.702   +22 27 49.32  .67425 1.6269 155.2 24.1  33d 103
2024 11 10 21  01 20 57.784   +22 28 13.83  .67471 1.6272 155.1 24.2  33d 103
2024 11 10 22  01 20 51.877   +22 28 38.29  .67517 1.6274 155.1 24.2  33d 103
2024 11 10 23  01 20 45.982   +22 29 02.69  .67564 1.6277 155.0 24.2  33d 103
2024 11 11 00  01 20 40.098   +22 29 27.04  .67610 1.6279 155.0 24.2  33d 103
2024 11 11 01  01 20 34.225   +22 29 51.33  .67657 1.6282 154.9 24.2  33d 103
2024 11 11 02  01 20 28.363   +22 30 15.58  .67703 1.6285 154.8 24.2  33d 103
2024 11 11 03  01 20 22.513   +22 30 39.77  .67750 1.6287 154.8 24.2  33d 103
2024 11 11 04  01 20 16.674   +22 31 03.91  .67796 1.6290 154.7 24.2  33d 103